Presure
83 147 78 81 101 172 92 84 169 95 103 96 96 98 168 113 151 127 153 130 96 97 102 98 128 127 110 93 92 90 104 99 100 95 109 102 102 105 105 115 110 104 107
129 149 165 84 84 94 100 148 178 85 85 94 177 91 108 82 96 175 161 93 92 93 87 133 98 100 103 136 142 96 89 98 97 93 105 95 97 104 119 107 106 100 104
174 100 177 147 158 92 88 177 180 87 175 116 89 93 96 96 110 133 146 133 180 89 89 87 90 90 121 150 96 100 93 93 97 92 95 100 96 114 100 95 104 107 110
155 182 181 182 180 106 183 84 87 86 84 112 92 86 100 100 105 93 106 83 141 156 178 116 130 137 98 93 92 139 95 100 100 98 98 108 110 104 105 112 117 113 107
90 173 200 195 176 182 144 145 86 129 77 90 80 122 110 85 90 123 112 116 109 149 144 173 163 121 160 165 157 158 120 100 130 100 155 97 97 99 133 149 121 111 104
163 91 94 103 111 190 120 180 178 178 135 86 141 175 125 120 121 124 118 126 79 81 98 149 128 168 167 159 154 165 160 153 131 147 145 139 165 165 123 124 129 159 126
148 127 227 254 97 101 139 181 188 182 123 122 137 119 121 128 138 124 127 115 125 138 131 82 106 151 153 171 164 179 163 147 161 156 142 151 146 146 148 153 151 152 169
199 134 144 149 150 151 125 109 153 152 193 125 128 125 123 126 125 126 123 122 131 129 154 129 127 144 143 94 96 117 167 163 168 182 149 137 161 182 161 168 160 148 157
231 143 144 179 153 224 239 227 148 147 186 104 179 167 115 118 121 154 154 162 169 170 151 130 133 127 143 131 132 151 164 175 162 155 156 177 179 105 108 141 139 148 151
185 221 146 203 117 84 158 184 163 156 150 170 191 104 177 185 157 169 123 147 117 166 152 171 164 154 171 139 137 146 147 151 166 137 166 161 162 154 153 175 152 123 152
208 210 209 212 211 211 167 133 152 168 154 106 147 175 171 97 95 165 122 153 154 175 153 163 169 171 166 163 164 126 115 141 138 146 165 136 169 164 164 164 161 158 156
200 197 200 200 202 207 204 210 159 240 170 190 184 116 152 115 86 88 87 102 91 130 96 181 191 133 145 169 177 177 134 133 132 151 137 135 114 135 163 170 151 171 168
192 193 197 198 199 202 201 197 201 213 235 238 169 159 147 147 149 140 85 95 146 95 94 129 91 95 184 174 160 170 177 174 170 175 140 137 128 150 138 148 154 155 140
178 188 197 193 193 194 196 199 201 208 205 232 228 238 224 182 163 166 156 155 156 147 92 169 86 102 91 88 138 168 153 168 176 173 167 167 177 144 152 153 142 141 143
178 175 183 185 188 196 194 194 200 195 202 208 216 232 182 237 214 163 162 162 160 169 159 155 156 159 161 154 158 89 84 151 125 131 173 176 169 169 164 168 161 150 135
182 181 181 180 185 184 187 191 194 200 202 199 206 206 223 226 205 227 183 173 176 162 162 164 169 176 167 163 158 156 144 156 89 138 156 152 130 94 123 169 168 168 160
194 196 196 180 177 180 183 188 194 189 195 204 201 203 206 211 222 229 185 207 180 181 172 172 174 172 170 169 167 167 164 166 155 155 166 164 168 158 150 159 163 172 102
230 208 254 201 186 181 173 179 180 196 186 185 191 199 196 204 204 211 219 224 193 182 181 183 180 177 176 174 173 173 176 176 180 173 168 184 178 101 173 170 166 158 151
211 213 217 226 240 202 181 185 181 183 169 167 171 186 182 168 168 171 208 211 219 225 212 191 187 183 181 182 181 182 184 175 173 173 171 174 173 173 169 171 168 172 164
193 198 216 241 241 238 228 208 258 167 161 159 157 188 192 190 195 200 205 201 203 208 209 217 223 208 196 156 187 190 187 187 188 182 179 181 178 173 172 172 167 166 168
226 241 242 199 199 202 238 252 161 161 164 150 151 175 163 168 193 172 151 200 191 198 198 198 191 208 180 213 216 213 203 200 192 199 196 145 139 177 182 184 183 188 177
250 242 248 244 258 237 214 207 257 152 153 146 167 154 151 145 140 141 177 169 195 176 185 189 203 186 126 195 143 151 206 201 211 206 199 200 163 175 179 189 178 177 139
255 256 263 258 249 258 258 252 231 149 143 144 149 142 138 143 144 154 157 163 151 145 161 180 195 166 188 174 139 174 170 208 121 175 218 201 129 191 200 197 124 167 167
233 236 252 261 265 256 260 254 265 266 257 200 147 145 142 152 146 138 132 130 135 137 133 139 140 135 137 142 128 134 120 173 147 140 140 143 164 141 159 153 205 160 166
243 247 252 263 260 256 265 256 269 262 265 274 273 219 157 144 144 152 133 130 132 141 138 145 125 136 132 171 152 127 132 125 126 121 130 137 140 135 147 127 203 181 209
216 239 258 239 231 269 268 269 263 268 267 268 268 230 264 215 280 152 137 135 143 144 147 143 124 127 134 138 144 129 128 140 137 140 130 132 133 127 137 130 176 173 184
Wind_Speed
24 29 20 20 22 29 22 20 28 21 24 20 19 16 27 24 28 24 27 23 17 16 17 16 23 24 16 13 12 11 11 11 11 9 11 10 8 11 10 13 10 10 11
30 34 33 25 25 24 30 28 31 24 22 23 31 22 23 11 22 28 30 20 19 17 14 28 17 17 17 26 29 14 12 13 13 11 13 11 11 11 19 12 12 13 12
40 32 38 39 37 31 27 35 35 24 38 33 22 22 24 24 26 31 32 29 32 18 19 17 18 17 26 34 15 15 15 16 16 14 13 15 14 20 13 14 14 18 19
40 43 41 39 39 33 38 26 27 27 24 33 25 21 30 29 24 22 25 18 32 33 35 28 31 32 21 18 17 33 18 19 19 17 16 21 21 18 17 22 23 22 19
44 48 50 45 41 42 43 36 30 43 24 27 24 42 37 22 22 36 33 29 29 36 35 39 41 29 41 41 39 39 28 23 31 21 35 20 19 19 29 32 29 24 21
47 44 45 46 47 46 47 43 44 45 44 29 45 47 43 41 39 39 39 36 16 19 25 38 34 42 43 43 41 43 42 39 32 37 37 35 39 39 33 32 33 36 31
47 44 43 41 45 45 48 44 45 47 48 47 48 46 44 43 45 41 39 32 38 38 37 21 29 38 36 43 45 41 44 39 42 41 37 37 38 37 36 35 36 37 41
44 46 47 47 47 47 45 44 45 47 50 51 52 51 48 47 47 44 41 39 40 42 43 38 38 41 40 27 26 32 45 43 43 42 38 35 40 46 42 43 40 38 39
40 54 52 46 50 43 42 44 49 50 50 44 53 52 47 46 47 52 49 52 51 50 47 43 43 42 43 41 39 42 42 43 47 46 44 40 40 30 30 39 37 39 40
47 39 55 43 45 27 53 49 52 53 54 53 55 40 56 61 56 59 45 46 40 50 50 52 52 51 50 46 45 46 45 45 46 40 47 44 44 45 43 41 42 36 43
41 41 40 39 41 43 55 44 52 54 57 45 60 58 58 40 38 59 44 54 52 59 50 53 55 54 54 54 52 44 39 45 43 45 47 40 46 47 47 47 47 46 46
43 43 44 44 44 44 47 48 58 47 58 59 60 48 60 45 35 35 35 42 39 48 39 57 57 46 48 54 54 53 49 47 46 49 45 43 38 43 46 45 42 44 44
47 47 47 48 46 47 49 51 52 53 52 56 61 63 62 63 63 58 33 44 56 43 41 49 37 36 60 58 50 51 54 54 53 54 51 48 45 48 46 47 46 45 43
52 52 52 52 51 51 51 52 53 55 56 55 61 63 72 68 67 67 64 62 62 60 35 62 35 43 38 34 51 56 52 54 57 57 56 55 55 50 51 51 48 47 46
56 57 55 55 56 55 55 57 57 58 58 59 60 61 66 69 74 69 68 66 67 70 65 63 60 60 59 57 57 38 29 55 49 50 60 60 57 57 55 53 51 51 48
61 61 61 61 60 60 60 61 61 62 62 63 62 64 64 67 70 74 72 72 72 71 70 70 69 70 66 64 61 59 54 58 37 52 59 56 47 33 44 57 55 54 54
69 69 69 66 65 65 64 65 66 65 65 67 67 66 67 68 69 71 73 77 74 75 75 75 75 72 70 68 68 66 64 66 60 57 64 61 62 59 58 58 58 59 34
68 70 67 71 70 69 67 68 68 71 68 67 69 70 69 70 71 72 73 76 76 76 77 79 79 78 77 73 71 71 72 71 70 68 67 67 64 38 64 63 62 61 58
73 73 75 75 74 75 74 75 72 72 67 66 67 70 69 64 65 66 75 75 76 78 81 79 79 80 81 80 78 77 76 72 71 68 67 68 65 66 65 66 66 66 65
81 78 77 75 76 78 81 78 81 71 68 67 67 74 75 73 74 75 76 77 77 78 79 80 82 83 84 57 83 83 81 81 78 74 72 73 73 70 70 70 69 69 69
82 81 80 86 85 83 82 83 74 73 73 67 66 73 69 71 78 71 63 79 75 79 80 80 78 82 71 87 89 89 88 86 83 85 79 53 51 73 76 76 75 77 74
82 83 83 84 83 84 89 87 85 73 72 68 75 69 67 64 62 61 75 72 81 72 77 78 83 77 53 83 56 56 83 81 88 86 85 85 64 73 76 79 75 74 57
83 85 83 86 87 86 87 88 88 75 72 71 72 67 63 66 65 67 67 70 62 60 66 74 82 68 81 70 51 67 68 85 48 70 89 87 52 83 88 87 52 73 70
89 88 89 88 87 90 88 91 91 90 90 89 77 73 70 73 70 66 61 59 60 62 60 61 60 58 58 58 51 51 48 69 52 51 50 54 67 52 70 60 92 68 72
94 93 92 91 92 91 90 93 91 92 91 91 91 91 82 74 73 75 67 62 64 68 63 66 55 61 57 75 62 53 53 51 50 50 53 52 53 59 49 51 93 81 96
88 92 93 88 90 93 93 94 94 94 94 93 92 90 86 97 86 80 71 70 74 73 72 69 56 57 61 62 63 55 55 59 57 59 55 54 53 54 52 48 83 78 88
Wind_Direction
227 243 227 224 230 239 223 214 227 217 225 231 237 230 220 235 222 216 216 222 224 223 225 227 226 235 223 213 208 215 241 235 235 230 254 245 237 244 248 256 256 245 260
246 249 235 230 230 233 236 233 229 218 217 230 219 215 227 236 220 224 222 228 222 220 241 225 229 232 236 234 231 215 234 241 249 248 257 246 245 254 256 253 254 256 262
259 241 254 245 243 232 230 236 234 223 229 231 226 228 237 225 238 234 223 229 218 230 228 237 241 248 243 235 240 241 243 242 242 238 248 255 253 264 253 256 264 263 269
253 260 257 252 248 238 243 232 232 233 235 233 238 230 239 240 235 231 236 247 230 229 221 240 233 234 242 244 241 240 250 250 249 247 250 265 266 266 266 266 264 271 269
244 260 262 255 242 245 244 234 238 234 237 233 240 237 239 241 236 240 239 234 242 230 234 226 230 239 235 233 237 239 247 253 245 255 247 254 257 259 262 262 267 269 266
253 246 247 246 246 244 249 234 230 232 240 234 236 224 241 240 241 242 243 244 256 258 239 236 246 230 232 237 239 237 241 242 249 245 247 252 252 255 264 266 267 265 271
244 243 255 255 247 243 245 237 236 233 243 243 241 245 247 249 245 243 245 245 250 246 244 250 242 238 235 233 236 236 241 244 244 243 253 249 251 253 255 257 257 260 266
250 243 245 242 242 241 239 237 234 237 229 244 246 247 248 248 248 244 245 246 250 252 238 251 253 246 241 246 247 251 238 244 243 246 250 252 255 255 257 259 260 262 264
254 247 246 247 243 246 243 239 236 237 232 246 231 233 250 251 252 240 244 238 236 236 240 252 252 254 247 254 247 246 242 241 245 249 250 248 250 257 260 262 265 263 263
250 253 246 249 247 254 243 241 240 236 239 233 227 241 232 233 239 233 248 241 250 239 243 243 241 243 242 252 253 247 248 252 247 254 249 250 250 257 259 259 258 265 262
257 254 252 252 251 251 242 238 242 241 240 238 244 235 236 243 242 237 242 247 237 240 245 244 244 245 244 246 244 254 254 252 255 256 253 256 250 255 256 256 259 261 263
256 255 255 250 248 249 248 249 240 242 241 236 234 243 244 244 249 245 243 246 249 247 248 243 240 247 249 249 247 246 252 254 256 254 257 257 259 260 260 260 261 261 263
256 254 253 252 249 248 246 246 246 247 242 239 237 238 241 246 248 247 247 248 251 248 249 248 251 253 246 249 245 248 249 250 251 252 255 257 261 258 261 261 265 266 263
249 252 252 249 248 247 246 244 246 247 244 242 241 239 237 235 241 243 246 247 248 251 249 246 254 252 258 259 249 250 246 249 251 253 253 255 256 258 256 258 262 262 262
249 249 249 250 251 248 244 243 244 242 244 243 244 242 239 239 238 241 243 245 246 245 250 253 251 250 249 250 249 255 254 248 255 255 254 255 256 258 257 257 259 262 266
251 249 248 247 247 246 246 247 245 245 243 242 242 242 244 241 240 241 239 241 241 247 249 251 250 247 248 251 252 252 253 252 261 254 254 254 259 264 264 260 260 260 261
255 252 250 247 246 247 246 245 245 244 245 244 242 242 240 242 244 242 239 241 241 241 245 248 249 251 251 251 252 252 254 254 255 254 255 256 256 258 260 261 262 262 271
254 253 254 252 249 247 246 246 245 243 241 240 243 242 241 241 241 242 244 245 241 241 243 244 248 250 252 251 252 251 252 254 253 254 257 255 254 252 259 260 263 263 263
255 254 253 252 251 248 246 245 244 243 239 239 240 242 242 238 238 238 242 243 245 245 245 243 244 246 250 253 252 254 253 252 256 256 257 260 260 259 261 260 261 262 264
256 255 250 257 254 251 249 247 250 242 241 238 237 246 243 243 243 244 243 243 242 242 245 246 245 246 247 246 251 253 254 256 255 253 256 258 259 258 257 258 261 262 263
261 261 260 254 254 253 250 251 243 242 243 240 241 244 241 242 243 242 240 243 242 241 243 243 243 246 246 247 249 251 253 253 255 259 256 257 258 259 260 260 261 260 263
263 262 261 259 258 255 253 253 255 244 244 243 244 241 242 241 240 240 243 244 244 242 242 242 243 244 246 247 248 248 249 250 252 253 257 259 259 258 259 260 261 262 268
265 264 265 262 259 257 256 256 253 247 245 245 245 243 241 242 244 246 245 243 243 243 244 244 243 246 246 247 247 249 250 251 253 252 250 253 260 259 258 257 267 262 265
266 266 264 263 262 259 258 256 257 255 253 250 245 246 243 243 241 242 242 242 243 243 245 245 245 245 246 247 246 247 248 252 253 252 255 260 264 262 260 263 261 265 265
265 263 262 263 261 259 260 257 258 257 256 257 255 249 246 244 243 242 242 245 246 246 244 243 248 247 250 250 247 249 246 248 249 251 254 256 260 259 264 265 259 262 260
265 265 265 260 261 260 259 259 258 259 257 257 256 252 250 249 254 244 241 243 245 245 245 245 246 248 247 249 250 248 249 249 249 254 254 256 256 259 262 260 265 266 265